Time,TemperatureF,DewpointF,PressureIn,WindDirection,WindDirectionDegrees,WindSpeedMPH,WindSpeedGustMPH,Humidity,HourlyPrecipIn,Conditions,Clouds,dailyrainin,SoftwareType,DateUTC
2013-06-20 00:02:00,67.1,65.9,30.05,NW,313,0.0,2.0,96,0.00,,,0.00,Wunderground v.1.15,2013-06-20 05:02:00,
2013-06-20 00:07:00,67.0,65.8,30.05,NW,313,0.0,2.0,96,0.00,,,0.00,Wunderground v.1.15,2013-06-20 05:07:00,
2013-06-20 00:13:00,66.9,65.7,30.06,NW,313,0.0,2.0,96,0.00,,,0.00,Wunderground v.1.15,2013-06-20 05:13:00,
2013-06-20 00:18:00,66.8,65.6,30.05,NW,313,0.0,2.0,96,0.00,,,0.00,Wunderground v.1.15,2013-06-20 05:18:00,
2013-06-20 00:23:00,66.7,65.5,30.05,NW,313,0.0,2.0,96,0.00,,,0.00,Wunderground v.1.15,2013-06-20 05:23:00,
2013-06-20 00:29:00,66.7,65.5,30.05,NW,311,0.0,2.0,96,0.00,,,0.00,Wunderground v.1.15,2013-06-20 05:29:00,
2013-06-20 00:34:00,66.5,65.3,30.05,NW,311,0.0,2.0,96,0.00,,,0.00,Wunderground v.1.15,2013-06-20 05:34:00,
2013-06-20 00:39:00,66.4,65.2,30.05,NW,316,0.0,2.0,96,0.00,,,0.00,Wunderground v.1.15,2013-06-20 05:39:00,
2013-06-20 00:45:00,66.3,65.1,30.05,SE,136,0.0,2.0,96,0.00,,,0.00,Wunderground v.1.15,2013-06-20 05:45:00,
2013-06-20 00:50:00,66.2,65.0,30.05,SE,137,0.0,2.0,96,0.00,,,0.00,Wunderground v.1.15,2013-06-20 05:50:00,
2013-06-20 00:55:00,66.2,65.0,30.05,SE,136,0.0,2.0,96,0.00,,,0.00,Wunderground v.1.15,2013-06-20 05:55:00,
2013-06-20 01:00:00,66.3,65.1,30.05,SE,136,0.0,2.0,96,0.00,,,0.00,Wunderground v.1.15,2013-06-20 06:00:00,
2013-06-20 01:06:00,66.2,65.0,30.05,SE,136,0.0,2.0,96,0.00,,,0.00,Wunderground v.1.15,2013-06-20 06:06:00,
2013-06-20 01:11:00,66.0,64.8,30.05,SE,136,0.0,2.0,96,0.00,,,0.00,Wunderground v.1.15,2013-06-20 06:11:00,
2013-06-20 01:16:00,65.8,64.6,30.05,SE,137,0.0,2.0,96,0.00,,,0.00,Wunderground v.1.15,2013-06-20 06:16:00,
2013-06-20 01:22:00,65.7,64.5,30.05,SE,136,0.0,2.0,96,0.00,,,0.00,Wunderground v.1.15,2013-06-20 06:22:00,
2013-06-20 01:27:00,65.8,64.6,30.05,SE,137,0.0,2.0,96,0.00,,,0.00,Wunderground v.1.15,2013-06-20 06:27:00,
2013-06-20 01:32:00,65.8,64.6,30.05,SE,136,0.0,2.0,96,0.00,,,0.00,Wunderground v.1.15,2013-06-20 06:32:00,
2013-06-20 01:37:00,65.8,64.6,30.06,SE,136,0.0,2.0,96,0.00,,,0.00,Wunderground v.1.15,2013-06-20 06:37:00,
2013-06-20 01:43:00,65.8,64.6,30.06,SE,136,0.0,2.0,96,0.00,,,0.00,Wunderground v.1.15,2013-06-20 06:43:00,
2013-06-20 01:48:00,65.7,64.5,30.06,SE,136,0.0,2.0,96,0.00,,,0.00,Wunderground v.1.15,2013-06-20 06:48:00,
2013-06-20 01:53:00,65.7,64.5,30.06,NW,304,0.0,2.0,96,0.00,,,0.00,Wunderground v.1.15,2013-06-20 06:53:00,
2013-06-20 01:59:00,65.5,64.3,30.06,NW,304,0.0,2.0,96,0.00,,,0.00,Wunderground v.1.15,2013-06-20 06:59:00,
2013-06-20 02:04:00,65.4,64.2,30.06,WNW,299,0.0,2.0,96,0.00,,,0.00,Wunderground v.1.15,2013-06-20 07:04:00,
2013-06-20 02:09:00,65.2,64.0,30.06,NNW,342,0.0,2.0,96,0.00,,,0.00,Wunderground v.1.15,2013-06-20 07:09:00,
2013-06-20 02:15:00,65.2,64.3,30.06,West,279,0.0,2.0,97,0.00,,,0.00,Wunderground v.1.15,2013-06-20 07:15:00,
2013-06-20 02:20:00,65.2,64.3,30.07,West,280,0.0,2.0,97,0.00,,,0.00,Wunderground v.1.15,2013-06-20 07:20:00,
2013-06-20 02:25:00,65.1,64.2,30.07,West,280,0.0,2.0,97,0.00,,,0.00,Wunderground v.1.15,2013-06-20 07:25:00,
2013-06-20 02:30:00,65.0,64.1,30.07,West,280,0.0,2.0,97,0.00,,,0.00,Wunderground v.1.15,2013-06-20 07:30:00,
2013-06-20 02:36:00,64.9,64.0,30.07,West,280,0.0,2.0,97,0.00,,,0.00,Wunderground v.1.15,2013-06-20 07:36:00,
2013-06-20 02:41:00,64.9,64.0,30.07,West,280,0.0,2.0,97,0.00,,,0.00,Wunderground v.1.15,2013-06-20 07:41:00,
2013-06-20 02:46:00,64.9,64.0,30.07,West,280,0.0,2.0,97,0.00,,,0.00,Wunderground v.1.15,2013-06-20 07:46:00,
2013-06-20 02:52:00,64.8,63.9,30.06,West,278,0.0,2.0,97,0.00,,,0.00,Wunderground v.1.15,2013-06-20 07:52:00,
2013-06-20 02:58:00,64.5,63.6,30.06,West,278,0.0,2.0,97,0.00,,,0.00,Wunderground v.1.15,2013-06-20 07:58:00,
2013-06-20 03:04:00,64.4,63.5,30.06,West,273,0.0,2.0,97,0.00,,,0.00,Wunderground v.1.15,2013-06-20 08:04:00,
2013-06-20 03:10:00,64.4,63.5,30.06,West,273,0.0,2.0,97,0.00,,,0.00,Wunderground v.1.15,2013-06-20 08:10:00,
2013-06-20 03:15:00,64.5,63.6,30.06,West,273,0.0,2.0,97,0.00,,,0.00,Wunderground v.1.15,2013-06-20 08:15:00,
2013-06-20 03:20:00,64.6,63.7,30.07,SE,128,0.0,2.0,97,0.00,,,0.00,Wunderground v.1.15,2013-06-20 08:20:00,
2013-06-20 03:26:00,64.6,63.7,30.07,SE,129,0.0,2.0,97,0.00,,,0.00,Wunderground v.1.15,2013-06-20 08:26:00,
2013-06-20 03:31:00,64.3,63.4,30.07,SE,130,0.0,2.0,97,0.00,,,0.00,Wunderground v.1.15,2013-06-20 08:31:00,
2013-06-20 03:36:00,64.1,63.2,30.07,SE,129,0.0,2.0,97,0.00,,,0.00,Wunderground v.1.15,2013-06-20 08:36:00,
2013-06-20 03:42:00,63.9,63.0,30.08,SE,129,0.0,2.0,97,0.00,,,0.00,Wunderground v.1.15,2013-06-20 08:42:00,
2013-06-20 03:47:00,63.8,62.9,30.08,SE,128,0.0,2.0,97,0.00,,,0.00,Wunderground v.1.15,2013-06-20 08:47:00,
2013-06-20 03:52:00,63.7,62.8,30.08,SE,129,0.0,2.0,97,0.00,,,0.00,Wunderground v.1.15,2013-06-20 08:52:00,
2013-06-20 03:57:00,63.7,62.8,30.08,SE,128,0.0,2.0,97,0.00,,,0.00,Wunderground v.1.15,2013-06-20 08:57:00,
2013-06-20 04:03:00,64.0,63.1,30.08,SE,128,0.0,2.0,97,0.00,,,0.00,Wunderground v.1.15,2013-06-20 09:03:00,
2013-06-20 04:08:00,64.2,63.3,30.08,SE,129,0.0,2.0,97,0.00,,,0.00,Wunderground v.1.15,2013-06-20 09:08:00,
2013-06-20 04:13:00,64.3,63.4,30.08,SE,128,0.0,2.0,97,0.00,,,0.00,Wunderground v.1.15,2013-06-20 09:13:00,
2013-06-20 04:19:00,64.3,63.4,30.09,SE,129,0.0,2.0,97,0.00,,,0.00,Wunderground v.1.15,2013-06-20 09:19:00,
2013-06-20 04:24:00,64.2,63.3,30.08,SE,129,0.0,2.0,97,0.00,,,0.00,Wunderground v.1.15,2013-06-20 09:24:00,
2013-06-20 04:29:00,64.1,63.2,30.08,SE,129,0.0,2.0,97,0.00,,,0.00,Wunderground v.1.15,2013-06-20 09:29:00,
2013-06-20 04:34:00,64.0,63.1,30.09,SE,129,0.0,2.0,97,0.00,,,0.00,Wunderground v.1.15,2013-06-20 09:34:00,
2013-06-20 04:40:00,63.9,63.0,30.09,SE,129,0.0,2.0,97,0.00,,,0.00,Wunderground v.1.15,2013-06-20 09:40:00,
2013-06-20 04:45:00,63.9,63.0,30.09,SE,128,0.0,2.0,97,0.00,,,0.00,Wunderground v.1.15,2013-06-20 09:45:00,
2013-06-20 04:50:00,63.9,63.0,30.09,SE,129,0.0,2.0,97,0.00,,,0.00,Wunderground v.1.15,2013-06-20 09:50:00,
2013-06-20 04:56:00,63.9,63.0,30.09,SE,129,0.0,2.0,97,0.00,,,0.00,Wunderground v.1.15,2013-06-20 09:56:00,
2013-06-20 05:01:00,64.1,63.2,30.10,SE,128,0.0,2.0,97,0.00,,,0.00,Wunderground v.1.15,2013-06-20 10:01:00,
2013-06-20 05:06:00,64.2,63.3,30.10,SE,129,0.0,2.0,97,0.00,,,0.00,Wunderground v.1.15,2013-06-20 10:06:00,
2013-06-20 05:12:00,63.8,62.9,30.10,SE,129,0.0,2.0,97,0.00,,,0.00,Wunderground v.1.15,2013-06-20 10:12:00,
2013-06-20 05:17:00,63.5,62.6,30.10,SE,129,0.0,2.0,97,0.00,,,0.00,Wunderground v.1.15,2013-06-20 10:17:00,
2013-06-20 05:22:00,63.3,62.4,30.10,SE,129,0.0,2.0,97,0.00,,,0.00,Wunderground v.1.15,2013-06-20 10:22:00,
2013-06-20 05:28:00,63.4,62.5,30.10,SE,129,0.0,2.0,97,0.00,,,0.00,Wunderground v.1.15,2013-06-20 10:28:00,
2013-06-20 05:33:00,63.6,62.7,30.10,SE,129,0.0,2.0,97,0.00,,,0.00,Wunderground v.1.15,2013-06-20 10:33:00,
2013-06-20 05:38:00,63.7,63.1,30.11,SE,128,0.0,2.0,98,0.00,,,0.00,Wunderground v.1.15,2013-06-20 10:38:00,
2013-06-20 05:43:00,63.8,63.2,30.10,SE,128,0.0,2.0,98,0.00,,,0.00,Wunderground v.1.15,2013-06-20 10:43:00,
2013-06-20 05:49:00,63.9,63.3,30.11,SE,129,0.0,2.0,98,0.00,,,0.00,Wunderground v.1.15,2013-06-20 10:49:00,
2013-06-20 05:54:00,63.8,62.9,30.10,SE,135,0.0,2.0,97,0.00,,,0.00,Wunderground v.1.15,2013-06-20 10:54:00,
2013-06-20 05:59:00,63.8,62.9,30.11,SE,136,0.0,2.0,97,0.00,,,0.00,Wunderground v.1.15,2013-06-20 10:59:00,
2013-06-20 06:05:00,63.9,63.0,30.11,SE,135,0.0,2.0,97,0.00,,,0.00,Wunderground v.1.15,2013-06-20 11:05:00,
2013-06-20 06:10:00,63.9,63.0,30.11,SE,135,0.0,2.0,97,0.00,,,0.00,Wunderground v.1.15,2013-06-20 11:10:00,
2013-06-20 06:15:00,63.9,63.0,30.11,SE,135,0.0,2.0,97,0.00,,,0.00,Wunderground v.1.15,2013-06-20 11:15:00,
2013-06-20 06:21:00,63.9,63.0,30.11,SE,135,0.0,2.0,97,0.00,,,0.00,Wunderground v.1.15,2013-06-20 11:21:00,
2013-06-20 06:26:00,63.9,63.0,30.11,SE,135,0.0,2.0,97,0.00,,,0.00,Wunderground v.1.15,2013-06-20 11:26:00,
2013-06-20 06:31:00,64.2,63.3,30.12,SE,136,0.0,2.0,97,0.00,,,0.00,Wunderground v.1.15,2013-06-20 11:31:00,
2013-06-20 06:36:00,64.4,63.8,30.12,SE,136,0.0,2.0,98,0.00,,,0.00,Wunderground v.1.15,2013-06-20 11:36:00,
2013-06-20 06:42:00,64.5,63.9,30.12,SE,136,0.0,2.0,98,0.00,,,0.00,Wunderground v.1.15,2013-06-20 11:42:00,
2013-06-20 06:47:00,64.6,63.7,30.12,SE,135,0.0,2.0,97,0.00,,,0.00,Wunderground v.1.15,2013-06-20 11:47:00,
2013-06-20 06:52:00,64.7,63.8,30.12,SW,223,0.0,2.0,97,0.00,,,0.00,Wunderground v.1.15,2013-06-20 11:52:00,
2013-06-20 06:58:00,64.8,63.9,30.12,SW,223,1.0,2.0,97,0.00,,,0.00,Wunderground v.1.15,2013-06-20 11:58:00,
2013-06-20 07:03:00,64.9,64.0,30.13,SW,224,0.0,2.0,97,0.00,,,0.00,Wunderground v.1.15,2013-06-20 12:03:00,
2013-06-20 07:08:00,65.3,64.4,30.13,SW,224,0.0,2.0,97,0.00,,,0.00,Wunderground v.1.15,2013-06-20 12:08:00,
2013-06-20 07:14:00,65.6,64.7,30.13,WSW,249,0.0,2.0,97,0.00,,,0.00,Wunderground v.1.15,2013-06-20 12:14:00,
2013-06-20 07:19:00,65.8,64.9,30.13,WSW,247,0.0,2.0,97,0.00,,,0.00,Wunderground v.1.15,2013-06-20 12:19:00,
2013-06-20 07:24:00,65.9,65.0,30.14,WSW,247,0.0,2.0,97,0.00,,,0.00,Wunderground v.1.15,2013-06-20 12:24:00,
2013-06-20 07:31:00,66.2,65.3,30.14,WSW,248,0.0,2.0,97,0.00,,,0.00,Wunderground v.1.15,2013-06-20 12:31:00,
2013-06-20 07:36:00,66.6,65.7,30.14,WSW,247,0.0,2.0,97,0.00,,,0.00,Wunderground v.1.15,2013-06-20 12:36:00,
2013-06-20 07:41:00,66.9,65.7,30.14,WSW,247,0.0,2.0,96,0.00,,,0.00,Wunderground v.1.15,2013-06-20 12:41:00,
2013-06-20 07:46:00,67.3,66.1,30.14,ESE,103,0.0,2.0,96,0.00,,,0.00,Wunderground v.1.15,2013-06-20 12:46:00,
2013-06-20 07:52:00,67.9,66.7,30.14,SW,214,0.0,2.0,96,0.00,,,0.00,Wunderground v.1.15,2013-06-20 12:52:00,
2013-06-20 07:57:00,68.1,66.6,30.14,SW,218,0.0,2.0,95,0.00,,,0.00,Wunderground v.1.15,2013-06-20 12:57:00,
2013-06-20 08:03:00,68.5,67.0,30.14,SW,218,0.0,2.0,95,0.00,,,0.00,Wunderground v.1.15,2013-06-20 13:03:00,
2013-06-20 08:08:00,68.8,67.3,30.14,WSW,240,0.0,2.0,95,0.00,,,0.00,Wunderground v.1.15,2013-06-20 13:08:00,
2013-06-20 08:13:00,69.2,67.4,30.14,WSW,237,0.0,2.0,94,0.00,,,0.00,Wunderground v.1.15,2013-06-20 13:13:00,
2013-06-20 08:18:00,69.6,67.8,30.14,WSW,238,0.0,2.0,94,0.00,,,0.00,Wunderground v.1.15,2013-06-20 13:18:00,
2013-06-20 08:24:00,69.9,67.8,30.14,WSW,245,0.0,2.0,93,0.00,,,0.00,Wunderground v.1.15,2013-06-20 13:24:00,
2013-06-20 08:29:00,70.4,68.3,30.14,WSW,246,0.0,2.0,93,0.00,,,0.00,Wunderground v.1.15,2013-06-20 13:29:00,
2013-06-20 08:35:00,70.9,68.8,30.14,WSW,246,0.0,2.0,93,0.00,,,0.00,Wunderground v.1.15,2013-06-20 13:35:00,
2013-06-20 08:41:00,71.3,68.5,30.14,SSW,213,0.0,2.0,91,0.00,,,0.00,Wunderground v.1.15,2013-06-20 13:41:00,
2013-06-20 08:46:00,71.7,68.9,30.14,SSW,193,0.0,2.0,91,0.00,,,0.00,Wunderground v.1.15,2013-06-20 13:46:00,
2013-06-20 08:51:00,71.9,69.1,30.14,WSW,237,0.0,2.0,91,0.00,,,0.00,Wunderground v.1.15,2013-06-20 13:51:00,
2013-06-20 08:57:00,72.4,69.3,30.14,North,351,0.0,2.0,90,0.00,,,0.00,Wunderground v.1.15,2013-06-20 13:57:00,
2013-06-20 09:02:00,73.1,70.0,30.14,WNW,303,0.0,2.0,90,0.00,,,0.00,Wunderground v.1.15,2013-06-20 14:02:00,
2013-06-20 09:07:00,73.9,70.5,30.14,West,264,0.0,2.0,89,0.00,,,0.00,Wunderground v.1.15,2013-06-20 14:07:00,
2013-06-20 09:13:00,74.5,70.4,30.14,WNW,302,0.0,2.0,87,0.00,,,0.00,Wunderground v.1.15,2013-06-20 14:13:00,
2013-06-20 09:18:00,75.1,70.6,30.14,WSW,251,0.0,2.0,86,0.00,,,0.00,Wunderground v.1.15,2013-06-20 14:18:00,
2013-06-20 09:23:00,75.5,70.7,30.14,ENE,60,0.0,2.0,85,0.00,,,0.00,Wunderground v.1.15,2013-06-20 14:23:00,
2013-06-20 09:29:00,75.7,70.5,30.14,SW,235,1.0,2.0,84,0.00,,,0.00,Wunderground v.1.15,2013-06-20 14:29:00,
2013-06-20 09:34:00,76.0,70.8,30.14,WNW,293,1.0,2.0,84,0.00,,,0.00,Wunderground v.1.15,2013-06-20 14:34:00,
2013-06-20 09:39:00,76.4,71.2,30.14,NE,43,1.0,1.0,84,0.00,,,0.00,Wunderground v.1.15,2013-06-20 14:39:00,
2013-06-20 09:46:00,76.9,71.3,30.14,West,278,0.0,2.0,83,0.00,,,0.00,Wunderground v.1.15,2013-06-20 14:46:00,
2013-06-20 09:51:00,77.3,69.9,30.14,NE,41,1.0,2.0,78,0.00,,,0.00,Wunderground v.1.15,2013-06-20 14:51:00,
2013-06-20 09:56:00,77.3,70.3,30.14,ENE,69,1.0,2.0,79,0.00,,,0.00,Wunderground v.1.15,2013-06-20 14:56:00,
2013-06-20 10:01:00,77.5,70.1,30.14,North,2,1.0,2.0,78,0.00,,,0.00,Wunderground v.1.15,2013-06-20 15:01:00,
2013-06-20 10:07:00,77.7,69.1,30.14,ENE,62,1.0,2.0,75,0.00,,,0.00,Wunderground v.1.15,2013-06-20 15:07:00,
2013-06-20 10:12:00,78.1,69.1,30.14,WNW,297,2.0,2.0,74,0.00,,,0.00,Wunderground v.1.15,2013-06-20 15:12:00,
2013-06-20 10:17:00,78.5,69.9,30.14,WNW,297,1.0,4.0,75,0.00,,,0.00,Wunderground v.1.15,2013-06-20 15:17:00,
2013-06-20 10:23:00,79.0,70.8,30.14,ENE,58,1.0,2.0,76,0.00,,,0.00,Wunderground v.1.15,2013-06-20 15:23:00,
2013-06-20 10:28:00,79.5,70.1,30.14,NE,46,1.0,2.0,73,0.00,,,0.00,Wunderground v.1.15,2013-06-20 15:28:00,
2013-06-20 10:33:00,79.7,69.9,30.15,ENE,64,1.0,2.0,72,0.00,,,0.00,Wunderground v.1.15,2013-06-20 15:33:00,
2013-06-20 10:39:00,80.0,70.6,30.15,NNE,17,1.0,2.0,73,0.00,,,0.00,Wunderground v.1.15,2013-06-20 15:39:00,
2013-06-20 10:44:00,80.5,71.0,30.15,WNW,297,1.0,2.0,73,0.00,,,0.00,Wunderground v.1.15,2013-06-20 15:44:00,
2013-06-20 10:49:00,80.5,70.2,30.15,North,2,1.0,2.0,71,0.00,,,0.00,Wunderground v.1.15,2013-06-20 15:49:00,
2013-06-20 10:54:00,80.7,70.4,30.15,NE,56,1.0,3.0,71,0.00,,,0.00,Wunderground v.1.15,2013-06-20 15:54:00,
2013-06-20 11:00:00,80.9,70.6,30.15,ENE,64,1.0,2.0,71,0.00,,,0.00,Wunderground v.1.15,2013-06-20 16:00:00,
2013-06-20 11:06:00,80.7,69.6,30.15,WNW,293,1.0,2.0,69,0.00,,,0.00,Wunderground v.1.15,2013-06-20 16:06:00,
2013-06-20 11:11:00,81.4,71.5,30.14,WNW,294,0.0,2.0,72,0.00,,,0.00,Wunderground v.1.15,2013-06-20 16:11:00,
2013-06-20 11:16:00,81.9,70.3,30.14,NNE,23,1.0,2.0,68,0.00,,,0.00,Wunderground v.1.15,2013-06-20 16:16:00,
2013-06-20 11:22:00,81.8,70.6,30.14,ENE,64,1.0,2.0,69,0.00,,,0.00,Wunderground v.1.15,2013-06-20 16:22:00,
2013-06-20 11:27:00,82.2,70.1,30.14,NW,304,1.0,3.0,67,0.00,,,0.00,Wunderground v.1.15,2013-06-20 16:27:00,
2013-06-20 11:32:00,82.9,71.7,30.14,ENE,64,1.0,2.0,69,0.00,,,0.00,Wunderground v.1.15,2013-06-20 16:32:00,
2013-06-20 11:37:00,83.2,70.7,30.14,NNW,342,1.0,2.0,66,0.00,,,0.00,Wunderground v.1.15,2013-06-20 16:37:00,
2013-06-20 11:43:00,83.7,69.8,30.13,SW,228,1.0,2.0,63,0.00,,,0.00,Wunderground v.1.15,2013-06-20 16:43:00,
2013-06-20 11:48:00,83.8,71.2,30.13,ENE,65,1.0,2.0,66,0.00,,,0.00,Wunderground v.1.15,2013-06-20 16:48:00,
2013-06-20 11:53:00,83.6,70.1,30.13,NNE,19,1.0,2.0,64,0.00,,,0.00,Wunderground v.1.15,2013-06-20 16:53:00,
2013-06-20 11:59:00,83.5,70.0,30.13,North,1,1.0,3.0,64,0.00,,,0.00,Wunderground v.1.15,2013-06-20 16:59:00,
2013-06-20 12:04:00,83.5,70.0,30.13,NE,47,1.0,2.0,64,0.00,,,0.00,Wunderground v.1.15,2013-06-20 17:04:00,
2013-06-20 12:09:00,82.9,70.8,30.13,WNW,294,1.0,2.0,67,0.00,,,0.00,Wunderground v.1.15,2013-06-20 17:09:00,
2013-06-20 12:15:00,82.9,70.8,30.13,WNW,285,1.0,2.0,67,0.00,,,0.00,Wunderground v.1.15,2013-06-20 17:15:00,
2013-06-20 12:20:00,83.0,70.0,30.13,NE,48,0.0,2.0,65,0.00,,,0.00,Wunderground v.1.15,2013-06-20 17:20:00,
2013-06-20 12:25:00,82.9,71.3,30.13,North,356,1.0,2.0,68,0.00,,,0.00,Wunderground v.1.15,2013-06-20 17:25:00,
2013-06-20 12:30:00,83.9,70.9,30.13,West,281,1.0,2.0,65,0.00,,,0.00,Wunderground v.1.15,2013-06-20 17:30:00,
2013-06-20 12:36:00,84.7,70.7,30.12,WNW,285,2.0,4.0,63,0.00,,,0.00,Wunderground v.1.15,2013-06-20 17:36:00,
2013-06-20 12:41:00,84.8,70.8,30.12,NE,48,2.0,2.0,63,0.00,,,0.00,Wunderground v.1.15,2013-06-20 17:41:00,
2013-06-20 12:46:00,85.3,71.7,30.12,North,354,1.0,2.0,64,0.00,,,0.00,Wunderground v.1.15,2013-06-20 17:46:00,
2013-06-20 12:52:00,85.9,70.4,30.12,NNE,29,1.0,2.0,60,0.00,,,0.00,Wunderground v.1.15,2013-06-20 17:52:00,
2013-06-20 12:57:00,85.7,71.2,30.12,NW,320,1.0,3.0,62,0.00,,,0.00,Wunderground v.1.15,2013-06-20 17:57:00,
2013-06-20 13:02:00,86.8,71.2,30.12,NE,54,1.0,2.0,60,0.00,,,0.00,Wunderground v.1.15,2013-06-20 18:02:00,
2013-06-20 13:08:00,85.6,70.1,30.12,North,351,1.0,3.0,60,0.00,,,0.00,Wunderground v.1.15,2013-06-20 18:08:00,
2013-06-20 13:13:00,85.4,71.4,30.11,NNW,338,1.0,2.0,63,0.00,,,0.00,Wunderground v.1.15,2013-06-20 18:13:00,
2013-06-20 13:18:00,85.7,70.2,30.11,NE,40,1.0,2.0,60,0.00,,,0.00,Wunderground v.1.15,2013-06-20 18:18:00,
2013-06-20 13:23:00,86.3,70.8,30.11,ENE,64,1.0,3.0,60,0.00,,,0.00,Wunderground v.1.15,2013-06-20 18:23:00,
2013-06-20 13:29:00,87.1,72.0,30.11,ENE,67,1.0,3.0,61,0.00,,,0.00,Wunderground v.1.15,2013-06-20 18:29:00,
2013-06-20 13:34:00,86.0,70.0,30.11,ENE,66,1.0,3.0,59,0.00,,,0.00,Wunderground v.1.15,2013-06-20 18:34:00,
2013-06-20 13:39:00,85.4,72.3,30.11,ENE,57,1.0,3.0,65,0.00,,,0.00,Wunderground v.1.15,2013-06-20 18:39:00,
2013-06-20 13:45:00,86.1,70.1,30.11,ENE,64,1.0,3.0,59,0.00,,,0.00,Wunderground v.1.15,2013-06-20 18:45:00,
2013-06-20 13:50:00,86.6,70.6,30.11,West,281,1.0,3.0,59,0.00,,,0.00,Wunderground v.1.15,2013-06-20 18:50:00,
2013-06-20 13:55:00,86.9,69.8,30.10,WNW,297,2.0,3.0,57,0.00,,,0.00,Wunderground v.1.15,2013-06-20 18:55:00,
2013-06-20 14:01:00,87.2,69.6,30.10,North,9,1.0,2.0,56,0.00,,,0.00,Wunderground v.1.15,2013-06-20 19:01:00,
2013-06-20 14:06:00,86.8,70.8,30.10,North,354,1.0,4.0,59,0.00,,,0.00,Wunderground v.1.15,2013-06-20 19:06:00,
2013-06-20 14:11:00,86.1,70.6,30.10,NNE,17,2.0,2.0,60,0.00,,,0.00,Wunderground v.1.15,2013-06-20 19:11:00,
2013-06-20 14:16:00,85.1,71.1,30.11,NE,46,1.0,2.0,63,0.00,,,0.00,Wunderground v.1.15,2013-06-20 19:16:00,
2013-06-20 14:22:00,84.3,70.8,30.10,ENE,77,1.0,2.0,64,0.00,,,0.00,Wunderground v.1.15,2013-06-20 19:22:00,
2013-06-20 14:27:00,84.6,72.4,30.10,ENE,77,0.0,2.0,67,0.00,,,0.00,Wunderground v.1.15,2013-06-20 19:27:00,
2013-06-20 14:32:00,86.0,72.4,30.10,WNW,283,0.0,2.0,64,0.00,,,0.00,Wunderground v.1.15,2013-06-20 19:32:00,
2013-06-20 14:38:00,86.4,69.9,30.10,North,354,1.0,2.0,58,0.00,,,0.00,Wunderground v.1.15,2013-06-20 19:38:00,
2013-06-20 14:43:00,86.2,71.6,30.10,North,358,0.0,2.0,62,0.00,,,0.00,Wunderground v.1.15,2013-06-20 19:43:00,
2013-06-20 14:48:00,85.6,71.6,30.10,North,358,0.0,2.0,63,0.00,,,0.00,Wunderground v.1.15,2013-06-20 19:48:00,
2013-06-20 14:53:00,84.7,72.1,30.10,West,276,0.0,2.0,66,0.00,,,0.00,Wunderground v.1.15,2013-06-20 19:53:00,
2013-06-20 14:59:00,84.0,71.9,30.10,West,276,0.0,2.0,67,0.00,,,0.00,Wunderground v.1.15,2013-06-20 19:59:00,
2013-06-20 15:04:00,82.7,71.9,30.10,WSW,251,0.0,3.0,70,0.00,,,0.00,Wunderground v.1.15,2013-06-20 20:04:00,
2013-06-20 15:09:00,81.0,71.5,30.10,SW,220,1.0,3.0,73,0.00,,,0.00,Wunderground v.1.15,2013-06-20 20:09:00,
2013-06-20 15:15:00,79.6,71.0,30.10,SW,226,2.0,4.0,75,0.00,,,0.00,Wunderground v.1.15,2013-06-20 20:15:00,
2013-06-20 15:20:00,78.7,70.5,30.10,SW,224,2.0,2.0,76,0.00,,,0.00,Wunderground v.1.15,2013-06-20 20:20:00,
2013-06-20 15:26:00,76.8,70.5,30.11,SW,233,2.0,3.0,81,0.00,,,0.00,Wunderground v.1.15,2013-06-20 20:26:00,
2013-06-20 15:32:00,75.8,69.9,30.11,SW,219,1.0,2.0,82,0.00,,,0.00,Wunderground v.1.15,2013-06-20 20:32:00,
2013-06-20 15:37:00,74.9,70.4,30.11,SW,221,1.0,2.0,86,0.44,,,0.02,Wunderground v.1.15,2013-06-20 20:37:00,
2013-06-20 15:43:00,73.9,70.1,30.11,SSW,207,1.0,3.0,88,0.73,,,0.08,Wunderground v.1.15,2013-06-20 20:43:00,
2013-06-20 15:48:00,73.1,69.3,30.11,SW,219,2.0,4.0,88,0.71,,,0.15,Wunderground v.1.15,2013-06-20 20:48:00,
2013-06-20 15:53:00,71.8,67.4,30.11,ESE,110,3.0,3.0,86,1.79,,,0.24,Wunderground v.1.15,2013-06-20 20:53:00,
2013-06-20 15:58:00,70.1,64.3,30.11,SW,229,4.0,8.0,82,0.26,,,0.28,Wunderground v.1.15,2013-06-20 20:58:00,
2013-06-20 16:04:00,69.2,64.8,30.13,North,358,4.0,5.0,86,1.15,,,0.36,Wunderground v.1.15,2013-06-20 21:04:00,
2013-06-20 16:09:00,68.1,65.4,30.13,West,261,4.0,5.0,91,2.15,,,0.53,Wunderground v.1.15,2013-06-20 21:09:00,
2013-06-20 16:14:00,67.7,65.0,30.11,WNW,293,3.0,3.0,91,0.85,,,0.66,Wunderground v.1.15,2013-06-20 21:14:00,
2013-06-20 16:20:00,67.4,65.3,30.10,NW,312,2.0,2.0,93,0.65,,,0.73,Wunderground v.1.15,2013-06-20 21:20:00,
2013-06-20 16:25:00,67.5,65.7,30.10,West,268,1.0,2.0,94,0.27,,,0.76,Wunderground v.1.15,2013-06-20 21:25:00,
2013-06-20 16:30:00,68.2,66.7,30.10,East,101,1.0,2.0,95,0.15,,,0.77,Wunderground v.1.15,2013-06-20 21:30:00,
2013-06-20 16:36:00,68.5,66.4,30.10,SW,235,1.0,3.0,93,0.06,,,0.77,Wunderground v.1.15,2013-06-20 21:36:00,
2013-06-20 16:41:00,69.0,67.2,30.09,SSE,151,1.0,2.0,94,0.04,,,0.77,Wunderground v.1.15,2013-06-20 21:41:00,
2013-06-20 16:46:00,69.6,67.5,30.09,ESE,105,1.0,2.0,93,0.00,,,0.77,Wunderground v.1.15,2013-06-20 21:46:00,
2013-06-20 16:51:00,70.0,67.9,30.09,ESE,103,2.0,2.0,93,0.00,,,0.77,Wunderground v.1.15,2013-06-20 21:51:00,
2013-06-20 16:57:00,71.0,68.2,30.08,East,100,1.0,2.0,91,0.00,,,0.77,Wunderground v.1.15,2013-06-20 21:57:00,
2013-06-20 17:02:00,72.0,69.2,30.08,ESE,111,1.0,2.0,91,0.00,,,0.77,Wunderground v.1.15,2013-06-20 22:02:00,
2013-06-20 17:07:00,73.0,70.5,30.08,ESE,112,1.0,2.0,92,0.00,,,0.77,Wunderground v.1.15,2013-06-20 22:07:00,
2013-06-20 17:13:00,74.2,71.1,30.08,West,275,0.0,2.0,90,0.00,,,0.77,Wunderground v.1.15,2013-06-20 22:13:00,
2013-06-20 17:18:00,74.4,70.6,30.08,WSW,247,0.0,2.0,88,0.00,,,0.77,Wunderground v.1.15,2013-06-20 22:18:00,
2013-06-20 17:23:00,74.6,71.1,30.08,SW,228,0.0,2.0,89,0.00,,,0.77,Wunderground v.1.15,2013-06-20 22:23:00,
2013-06-20 17:29:00,74.8,70.7,30.08,SW,228,0.0,2.0,87,0.00,,,0.77,Wunderground v.1.15,2013-06-20 22:29:00,
2013-06-20 17:34:00,75.6,70.8,30.09,SW,228,0.0,2.0,85,0.00,,,0.77,Wunderground v.1.15,2013-06-20 22:34:00,
2013-06-20 17:40:00,75.8,69.9,30.09,SW,226,0.0,2.0,82,0.00,,,0.77,Wunderground v.1.15,2013-06-20 22:40:00,
2013-06-20 17:45:00,75.9,70.0,30.08,SW,226,0.0,2.0,82,0.00,,,0.77,Wunderground v.1.15,2013-06-20 22:45:00,
2013-06-20 17:50:00,76.1,69.8,30.09,WNW,302,0.0,2.0,81,0.00,,,0.77,Wunderground v.1.15,2013-06-20 22:50:00,
2013-06-20 17:56:00,76.1,69.8,30.09,NE,48,0.0,2.0,81,0.00,,,0.77,Wunderground v.1.15,2013-06-20 22:56:00,
2013-06-20 18:01:00,76.1,69.5,30.09,SE,133,0.0,3.0,80,0.00,,,0.77,Wunderground v.1.15,2013-06-20 23:01:00,
2013-06-20 18:06:00,75.5,70.0,30.09,NE,43,1.0,3.0,83,0.00,,,0.77,Wunderground v.1.15,2013-06-20 23:06:00,
2013-06-20 18:11:00,74.9,69.0,30.09,East,90,1.0,2.0,82,0.00,,,0.77,Wunderground v.1.15,2013-06-20 23:11:00,
2013-06-20 18:17:00,74.7,69.9,30.09,ESE,110,1.0,2.0,85,0.00,,,0.77,Wunderground v.1.15,2013-06-20 23:17:00,
2013-06-20 18:22:00,75.1,71.0,30.09,ESE,110,0.0,2.0,87,0.00,,,0.77,Wunderground v.1.15,2013-06-20 23:22:00,
2013-06-20 18:27:00,75.2,71.1,30.10,SSW,197,0.0,2.0,87,0.00,,,0.77,Wunderground v.1.15,2013-06-20 23:27:00,
2013-06-20 18:33:00,75.0,71.2,30.10,SSW,209,0.0,2.0,88,0.00,,,0.77,Wunderground v.1.15,2013-06-20 23:33:00,
2013-06-20 18:38:00,74.8,71.3,30.11,SW,219,1.0,2.0,89,0.00,,,0.77,Wunderground v.1.15,2013-06-20 23:38:00,
2013-06-20 18:43:00,74.5,71.0,30.11,SW,221,1.0,2.0,89,0.00,,,0.77,Wunderground v.1.15,2013-06-20 23:43:00,
2013-06-20 18:49:00,74.5,70.7,30.11,WSW,244,1.0,2.0,88,0.00,,,0.77,Wunderground v.1.15,2013-06-20 23:49:00,
2013-06-20 18:54:00,74.5,70.7,30.11,WSW,245,0.0,2.0,88,0.00,,,0.77,Wunderground v.1.15,2013-06-20 23:54:00,
2013-06-20 18:59:00,74.4,70.9,30.11,WSW,245,0.0,2.0,89,0.00,,,0.77,Wunderground v.1.15,2013-06-20 23:59:00,
2013-06-20 19:04:00,74.2,71.1,30.10,SSE,150,0.0,2.0,90,0.00,,,0.77,Wunderground v.1.15,2013-06-21 00:04:00,
2013-06-20 19:10:00,73.9,70.8,30.10,SSE,150,0.0,2.0,90,0.00,,,0.77,Wunderground v.1.15,2013-06-21 00:10:00,
2013-06-20 19:15:00,73.6,70.5,30.11,SSE,150,0.0,2.0,90,0.00,,,0.77,Wunderground v.1.15,2013-06-21 00:15:00,
2013-06-20 19:20:00,73.5,70.7,30.11,South,187,0.0,2.0,91,0.00,,,0.77,Wunderground v.1.15,2013-06-21 00:20:00,
2013-06-20 19:25:00,73.4,70.3,30.12,SSW,200,0.0,2.0,90,0.00,,,0.77,Wunderground v.1.15,2013-06-21 00:25:00,
2013-06-20 19:31:00,73.0,69.9,30.12,SW,226,1.0,2.0,90,0.00,,,0.77,Wunderground v.1.15,2013-06-21 00:31:00,
2013-06-20 19:36:00,72.8,70.0,30.12,SSW,208,1.0,2.0,91,0.00,,,0.77,Wunderground v.1.15,2013-06-21 00:36:00,
2013-06-20 19:42:00,72.8,70.0,30.12,SSW,209,0.0,2.0,91,0.00,,,0.77,Wunderground v.1.15,2013-06-21 00:42:00,
2013-06-20 19:47:00,72.6,69.8,30.12,SSW,211,0.0,2.0,91,0.00,,,0.77,Wunderground v.1.15,2013-06-21 00:47:00,
2013-06-20 19:52:00,72.4,69.6,30.13,SSW,212,0.0,2.0,91,0.00,,,0.77,Wunderground v.1.15,2013-06-21 00:52:00,
2013-06-20 19:58:00,72.1,69.3,30.12,SSW,212,1.0,2.0,91,0.00,,,0.77,Wunderground v.1.15,2013-06-21 00:58:00,
2013-06-20 20:03:00,71.9,69.1,30.13,West,262,1.0,2.0,91,0.00,,,0.77,Wunderground v.1.15,2013-06-21 01:03:00,
2013-06-20 20:08:00,71.8,69.3,30.13,West,262,1.0,2.0,92,0.00,,,0.77,Wunderground v.1.15,2013-06-21 01:08:00,
2013-06-20 20:14:00,71.7,69.6,30.12,West,262,0.0,2.0,93,0.00,,,0.77,Wunderground v.1.15,2013-06-21 01:14:00,
2013-06-20 20:19:00,71.8,69.7,30.13,SSW,202,0.0,2.0,93,0.00,,,0.77,Wunderground v.1.15,2013-06-21 01:19:00,
2013-06-20 20:24:00,71.9,69.8,30.13,SW,230,0.0,2.0,93,4.92,,,0.83,Wunderground v.1.15,2013-06-21 01:24:00,
2013-06-20 20:30:00,71.6,69.5,30.14,SW,230,0.0,2.0,93,0.60,,,1.00,Wunderground v.1.15,2013-06-21 01:30:00,
2013-06-20 20:35:00,71.3,69.5,30.14,SE,127,0.0,2.0,94,0.23,,,1.03,Wunderground v.1.15,2013-06-21 01:35:00,
2013-06-20 20:40:00,71.1,69.3,30.14,East,101,1.0,2.0,94,0.16,,,1.04,Wunderground v.1.15,2013-06-21 01:40:00,
2013-06-20 20:46:00,70.7,69.2,30.14,East,99,1.0,2.0,95,0.30,,,1.07,Wunderground v.1.15,2013-06-21 01:46:00,
2013-06-20 20:51:00,70.6,69.1,30.15,ENE,71,1.0,2.0,95,0.15,,,1.09,Wunderground v.1.15,2013-06-21 01:51:00,
2013-06-20 20:57:00,70.4,69.2,30.14,West,280,0.0,2.0,96,0.14,,,1.10,Wunderground v.1.15,2013-06-21 01:57:00,
2013-06-20 21:02:00,69.9,68.4,30.14,NNE,32,0.0,2.0,95,0.13,,,1.11,Wunderground v.1.15,2013-06-21 02:02:00,
2013-06-20 21:08:00,69.8,68.3,30.14,NE,40,0.0,2.0,95,0.06,,,1.11,Wunderground v.1.15,2013-06-21 02:08:00,
2013-06-20 21:13:00,69.3,67.8,30.14,NNE,29,1.0,2.0,95,0.04,,,1.11,Wunderground v.1.15,2013-06-21 02:13:00,
2013-06-20 21:19:00,69.0,67.5,30.14,NNE,22,1.0,2.0,95,0.04,,,1.12,Wunderground v.1.15,2013-06-21 02:19:00,
2013-06-20 21:24:00,68.9,67.4,30.15,NE,47,1.0,2.0,95,0.04,,,1.12,Wunderground v.1.15,2013-06-21 02:24:00,
2013-06-20 21:29:00,68.5,66.7,30.14,NE,43,2.0,3.0,94,0.04,,,1.12,Wunderground v.1.15,2013-06-21 02:29:00,
2013-06-20 21:34:00,68.4,66.9,30.15,North,355,1.0,2.0,95,0.00,,,1.12,Wunderground v.1.15,2013-06-21 02:34:00,
2013-06-20 21:40:00,68.2,66.4,30.15,NE,55,1.0,2.0,94,0.00,,,1.12,Wunderground v.1.15,2013-06-21 02:40:00,
2013-06-20 21:45:00,68.1,66.6,30.16,ENE,62,2.0,2.0,95,0.00,,,1.12,Wunderground v.1.15,2013-06-21 02:45:00,
2013-06-20 21:51:00,67.9,66.4,30.16,West,275,2.0,3.0,95,0.00,,,1.12,Wunderground v.1.15,2013-06-21 02:51:00,
2013-06-20 21:56:00,67.7,66.2,30.16,NNE,13,1.0,3.0,95,0.00,,,1.13,Wunderground v.1.15,2013-06-21 02:56:00,
2013-06-20 22:01:00,67.7,66.5,30.16,NE,38,1.0,3.0,96,0.13,,,1.14,Wunderground v.1.15,2013-06-21 03:01:00,
2013-06-20 22:06:00,67.6,66.4,30.16,NNW,341,1.0,3.0,96,0.24,,,1.16,Wunderground v.1.15,2013-06-21 03:06:00,
2013-06-20 22:12:00,67.7,66.5,30.16,NNW,328,1.0,2.0,96,0.22,,,1.18,Wunderground v.1.15,2013-06-21 03:12:00,
2013-06-20 22:17:00,67.7,66.5,30.17,NNW,327,0.0,2.0,96,0.17,,,1.19,Wunderground v.1.15,2013-06-21 03:17:00,
2013-06-20 22:22:00,67.7,66.5,30.17,NNW,327,0.0,2.0,96,0.08,,,1.19,Wunderground v.1.15,2013-06-21 03:22:00,
2013-06-20 22:28:00,67.7,66.5,30.17,WNW,294,0.0,2.0,96,0.08,,,1.20,Wunderground v.1.15,2013-06-21 03:28:00,
2013-06-20 22:33:00,67.6,66.4,30.17,ENE,60,0.0,2.0,96,0.05,,,1.20,Wunderground v.1.15,2013-06-21 03:33:00,
2013-06-20 22:38:00,67.6,66.4,30.17,ENE,58,0.0,2.0,96,0.04,,,1.20,Wunderground v.1.15,2013-06-21 03:38:00,
2013-06-20 22:44:00,67.6,66.4,30.17,ENE,58,0.0,2.0,96,0.00,,,1.20,Wunderground v.1.15,2013-06-21 03:44:00,
2013-06-20 22:50:00,67.5,66.6,30.17,NE,51,0.0,2.0,97,0.00,,,1.20,Wunderground v.1.15,2013-06-21 03:50:00,
2013-06-20 22:56:00,67.3,66.4,30.17,NE,54,0.0,2.0,97,0.00,,,1.20,Wunderground v.1.15,2013-06-21 03:56:00,
2013-06-20 23:01:00,67.3,66.4,30.17,NE,54,0.0,2.0,97,0.00,,,1.20,Wunderground v.1.15,2013-06-21 04:01:00,
2013-06-20 23:02:00,67.3,66.4,30.16,NE,54,0.0,2.0,97,0.00,,,1.20,Wunderground v.1.15,2013-06-21 04:02:00,
2013-06-20 23:03:00,67.3,66.4,30.17,NE,54,0.0,2.0,97,0.00,,,1.20,Wunderground v.1.15,2013-06-21 04:03:00,
2013-06-20 23:04:00,67.3,66.4,30.17,NE,54,0.0,2.0,97,0.00,,,1.20,Wunderground v.1.15,2013-06-21 04:04:00,
2013-06-20 23:09:00,67.2,66.3,30.17,NE,51,0.0,2.0,97,0.00,,,1.20,Wunderground v.1.15,2013-06-21 04:09:00,
2013-06-20 23:12:00,67.2,66.3,30.17,NE,53,0.0,2.0,97,0.00,,,1.20,Wunderground v.1.15,2013-06-21 04:12:00,
2013-06-20 23:17:00,67.2,66.3,30.17,East,95,0.0,2.0,97,0.00,,,1.20,Wunderground v.1.15,2013-06-21 04:17:00,
2013-06-20 23:22:00,67.1,66.2,30.17,East,100,0.0,2.0,97,0.00,,,1.20,Wunderground v.1.15,2013-06-21 04:22:00,
2013-06-20 23:27:00,67.1,66.2,30.17,East,100,0.0,2.0,97,0.00,,,1.20,Wunderground v.1.15,2013-06-21 04:27:00,
2013-06-20 23:33:00,67.1,66.2,30.17,East,100,0.0,2.0,97,0.00,,,1.20,Wunderground v.1.15,2013-06-21 04:33:00,
2013-06-20 23:38:00,67.0,66.1,30.16,East,100,0.0,2.0,97,0.00,,,1.20,Wunderground v.1.15,2013-06-21 04:38:00,
2013-06-20 23:43:00,66.9,66.0,30.16,East,100,0.0,2.0,97,0.00,,,1.20,Wunderground v.1.15,2013-06-21 04:43:00,
2013-06-20 23:49:00,67.0,66.1,30.17,East,100,0.0,2.0,97,0.00,,,1.20,Wunderground v.1.15,2013-06-21 04:49:00,
2013-06-20 23:54:00,67.0,66.1,30.16,East,100,0.0,2.0,97,0.00,,,1.20,Wunderground v.1.15,2013-06-21 04:54:00,
2013-06-20 23:59:00,66.9,66.0,30.16,East,100,0.0,2.0,97,0.00,,,1.20,Wunderground v.1.15,2013-06-21 04:59:00,